Location: Unspecified
(0.0000°N, 0.0000°E)
Time: 07:07:50
(UTC+00:00)

Starlink L25 Placeholder - Pass Details

Date: 05 May 2021
Orbit: 257 x 285 km, 53.1° (Epoch: 29 April)

Event Time Altitude Azimuth Distance (km) Brightness Sun altitude
Rises 18:23:33 0° 226° (SW) 1,858 6.8 -6.4°
Reaches altitude 10° 18:25:32 10° 237° (WSW) 1,046 5.7 -6.9°
Maximum altitude 18:27:39 31° 304° (WNW) 480 4.2 -7.4°
Drops below altitude 10° 18:29:44 10° 11° (N) 1,032 5.1 -7.9°
Sets 18:31:41 0° 22° (NNE) 1,828 6.3 -8.4°
